| time (UTC) | temp F | wind direction | speed knots | gust knots | rain 1hr in | rain 24hr in | rain mn in | humidity % | barometer mb |
| 20260905140212 | 68 | 262 | 13.9 | 18.2 | 0.00 | 0.02 | 0.00 | 49 | 1009.3 |
| 20260905135712 | 68 | 262 | 14.8 | 20.0 | 0.00 | 0.02 | 0.02 | 49 | 1009.3 |
| 20260905135212 | 68 | 268 | 14.8 | 20.0 | 0.00 | 0.02 | 0.02 | 49 | 1009.1 |
| 20260905134212 | 68 | 259 | 17.4 | 22.6 | 0.00 | 0.02 | 0.02 | 50 | 1009.1 |
| 20260905133712 | 68 | 257 | 17.4 | 22.6 | 0.00 | 0.02 | 0.02 | 51 | 1009.0 |
| 20260905133213 | 68 | 256 | 15.6 | 22.6 | 0.00 | 0.02 | 0.02 | 52 | 1008.7 |
| 20260905132712 | 68 | 254 | 13.9 | 17.4 | 0.00 | 0.02 | 0.02 | 52 | 1008.8 |
| 20260905132212 | 68 | 253 | 12.2 | 15.6 | 0.00 | 0.02 | 0.02 | 53 | 1009.1 |
| 20260905131712 | 68 | 257 | 12.2 | 14.8 | 0.00 | 0.02 | 0.02 | 53 | 1008.9 |
| 20260905130712 | 68 | 259 | 10.4 | 13.9 | 0.00 | 0.02 | 0.02 | 53 | 1008.9 |
| 20260905130212 | 68 | 265 | 10.4 | 13.9 | 0.00 | 0.02 | 0.02 | 53 | 1008.8 |
| 20260905125712 | 68 | 266 | 11.3 | 14.8 | 0.00 | 0.02 | 0.02 | 53 | 1008.7 |
| 20260905124713 | 68 | 261 | 11.3 | 15.6 | 0.00 | 0.02 | 0.02 | 54 | 1008.8 |
| 20260905124212 | 68 | 262 | 8.7 | 13.0 | 0.00 | 0.02 | 0.02 | 55 | 1009.0 |
| 20260905123712 | 68 | 268 | 10.4 | 13.0 | 0.00 | 0.02 | 0.02 | 56 | 1008.9 |
| 20260905122712 | 68 | 250 | 9.6 | 14.8 | 0.00 | 0.02 | 0.02 | 58 | 1008.7 |
| 20260905122212 | 68 | 232 | 9.6 | 15.6 | 0.00 | 0.02 | 0.02 | 57 | 1008.9 |
| 20260905121712 | 69 | 222 | 4.3 | 7.8 | 0.00 | 0.02 | 0.02 | 56 | 1008.9 |
| 20260905121212 | 69 | 247 | 6.1 | 8.7 | 0.00 | 0.02 | 0.02 | 55 | 1008.5 |
| 20260905120713 | 69 | 245 | 5.2 | 7.0 | 0.00 | 0.02 | 0.02 | 55 | 1008.6 |
| 20260905120212 | 69 | 268 | 4.3 | 7.0 | 0.00 | 0.02 | 0.02 | 54 | 1008.4 |
| 20260905115712 | 70 | 267 | 4.3 | 6.1 | 0.00 | 0.02 | 0.02 | 53 | 1008.2 |
| 20260905115212 | 70 | 283 | 5.2 | 10.4 | 0.00 | 0.02 | 0.02 | 53 | 1008.2 |
| 20260905114712 | 70 | 304 | 7.8 | 11.3 | 0.00 | 0.02 | 0.02 | 53 | 1008.2 |
| 20260905113712 | 70 | 303 | 8.7 | 13.0 | 0.00 | 0.02 | 0.02 | 52 | 1008.1 |
| 20260905113212 | 70 | 303 | 10.4 | 13.0 | 0.00 | 0.02 | 0.02 | 53 | 1008.2 |
| 20260905112712 | 70 | 304 | 11.3 | 17.4 | 0.00 | 0.02 | 0.02 | 52 | 1008.3 |
| 20260905112212 | 70 | 304 | 12.2 | 13.9 | 0.00 | 0.02 | 0.02 | 53 | 1008.2 |
| 20260905111712 | 70 | 308 | 12.2 | 13.9 | 0.00 | 0.02 | 0.02 | 53 | 1008.1 |
| 20260905111212 | 70 | 304 | 9.6 | 15.6 | 0.00 | 0.02 | 0.02 | 53 | 1008.2 |
| 20260905110713 | 71 | 313 | 12.2 | 15.6 | 0.00 | 0.02 | 0.02 | 53 | 1008.3 |
| 20260905105712 | 71 | 317 | 11.3 | 14.8 | 0.00 | 0.02 | 0.02 | 52 | 1008.0 |
| 20260905105212 | 71 | 320 | 12.2 | 14.8 | 0.00 | 0.02 | 0.02 | 52 | 1008.0 |
| 20260905104712 | 71 | 319 | 13.0 | 17.4 | 0.00 | 0.02 | 0.02 | 52 | 1008.0 |
| 20260905102712 | 72 | 327 | 14.8 | 17.4 | 0.00 | 0.02 | 0.02 | 49 | 1008.1 |
| 20260905102212 | 72 | 310 | 13.9 | 17.4 | 0.00 | 0.02 | 0.02 | 49 | 1008.1 |
| 20260905101712 | 72 | 317 | 13.9 | 18.2 | 0.00 | 0.02 | 0.02 | 48 | 1008.0 |
| 20260905101212 | 72 | 314 | 13.9 | 19.1 | 0.00 | 0.02 | 0.02 | 48 | 1007.9 |
| 20260905100712 | 72 | 318 | 14.8 | 18.2 | 0.00 | 0.02 | 0.02 | 47 | 1007.8 |
| 20260905100212 | 72 | 310 | 13.0 | 17.4 | 0.00 | 0.02 | 0.02 | 47 | 1008.0 |
| 20260905095212 | 72 | 315 | 12.2 | 17.4 | 0.00 | 0.02 | 0.02 | 47 | 1007.7 |
| 20260905094712 | 73 | 308 | 11.3 | 18.2 | 0.00 | 0.02 | 0.02 | 47 | 1007.8 |
| 20260905094212 | 73 | 308 | 11.3 | 18.2 | 0.00 | 0.02 | 0.02 | 46 | 1007.8 |
| 20260905093712 | 73 | 310 | 12.2 | 17.4 | 0.00 | 0.02 | 0.02 | 46 | 1007.7 |
| 20260905092712 | 73 | 311 | 13.0 | 17.4 | 0.00 | 0.02 | 0.02 | 46 | 1007.7 |
| 20260905092212 | 73 | 305 | 12.2 | 17.4 | 0.00 | 0.02 | 0.02 | 46 | 1007.8 |
| 20260905090712 | 73 | 316 | 13.9 | 21.7 | 0.00 | 0.02 | 0.02 | 46 | 1007.9 |
| 20260905090211 | 73 | 309 | 14.8 | 20.0 | 0.00 | 0.02 | 0.02 | 46 | 1007.7 |
| 20260905085712 | 73 | 312 | 17.4 | 22.6 | 0.00 | 0.02 | 0.02 | 46 | 1007.8 |
| 20260905084212 | 71 | 320 | 14.8 | 22.6 | 0.00 | 0.02 | 0.02 | 52 | 1007.5 |
| 20260905083711 | 71 | 331 | 14.8 | 18.2 | 0.00 | 0.02 | 0.02 | 54 | 1007.6 |
| 20260905083212 | 71 | 331 | 13.9 | 20.0 | 0.00 | 0.02 | 0.02 | 55 | 1007.8 |
| 20260905082712 | 71 | 315 | 13.9 | 19.1 | 0.00 | 0.02 | 0.02 | 55 | 1008.1 |
| 20260905082212 | 70 | 320 | 17.4 | 26.9 | 0.00 | 0.02 | 0.02 | 56 | 1007.7 |
| 20260905081711 | 70 | 345 | 12.2 | 17.4 | 0.00 | 0.02 | 0.02 | 59 | 1008.2 |
| 20260905081211 | 70 | 334 | 11.3 | 15.6 | 0.00 | 0.02 | 0.02 | 60 | 1008.2 |
| 20260905080712 | 70 | 317 | 12.2 | 17.4 | 0.00 | 0.02 | 0.02 | 60 | 1008.5 |
| 20260905080211 | 70 | 311 | 13.9 | 15.6 | 0.00 | 0.02 | 0.02 | 60 | 1008.4 |
| 20260905075712 | 69 | 322 | 12.2 | 15.6 | 0.00 | 0.02 | 0.02 | 60 | 1008.4 |
| 20260905075212 | 69 | 316 | 10.4 | 13.9 | 0.00 | 0.02 | 0.02 | 61 | 1008.6 |
| 20260905074712 | 69 | 297 | 8.7 | 13.9 | 0.00 | 0.02 | 0.02 | 61 | 1008.6 |
| 20260905073711 | 70 | 329 | 13.9 | 19.1 | 0.00 | 0.02 | 0.02 | 59 | 1008.3 |
| 20260905073212 | 70 | 337 | 12.2 | 18.2 | 0.01 | 0.02 | 0.02 | 58 | 1008.1 |
| 20260905072212 | 70 | 300 | 11.3 | 19.1 | 0.02 | 0.02 | 0.02 | 59 | 1008.3 |
| 20260905071711 | 70 | 282 | 16.5 | 25.2 | 0.02 | 0.02 | 0.02 | 59 | 1009.0 |
| 20260905071212 | 70 | 274 | 17.4 | 24.3 | 0.02 | 0.02 | 0.02 | 60 | 1009.2 |
| 20260905070712 | 69 | 278 | 14.8 | 22.6 | 0.02 | 0.02 | 0.02 | 62 | 1009.5 |
| 20260905065712 | 69 | 278 | 13.9 | 17.4 | 0.02 | 0.02 | 0.02 | 62 | 1008.9 |
| 20260905064211 | 70 | 282 | 17.4 | 26.1 | 0.02 | 0.02 | 0.02 | 60 | 1008.9 |
| 20260905063711 | 71 | 287 | 13.9 | 28.7 | 0.02 | 0.02 | 0.02 | 58 | 1008.7 |
| 20260905063211 | 73 | 278 | 26.1 | 33.9 | 0.01 | 0.01 | 0.01 | 53 | 1009.5 |
| 20260905062712 | 75 | 270 | 31.3 | 42.6 | 0.00 | 0.00 | 0.00 | 46 | 1009.3 |
| 20260905061711 | 79 | 255 | 33.9 | 47.8 | 0.00 | 0.00 | 0.00 | 36 | 1008.7 |
| 20260905061211 | 80 | 249 | 39.1 | 53.0 | 0.00 | 0.00 | 0.00 | 33 | 1008.4 |
| 20260905060711 | 82 | 237 | 32.2 | 41.7 | 0.00 | 0.00 | 0.00 | 32 | 1007.9 |
| 20260905055711 | 84 | 276 | 19.1 | 32.2 | 0.00 | 0.00 | 0.00 | 27 | 1007.2 |
| 20260905055211 | 84 | 286 | 18.2 | 32.2 | 0.00 | 0.00 | 0.00 | 27 | 1007.1 |
| 20260905054711 | 85 | 274 | 17.4 | 27.8 | 0.00 | 0.00 | 0.00 | 27 | 1006.6 |
| 20260905054211 | 85 | 277 | 24.3 | 32.2 | 0.00 | 0.00 | 0.00 | 27 | 1006.4 |
| 20260905053711 | 85 | 275 | 30.4 | 42.6 | 0.00 | 0.00 | 0.00 | 26 | 1006.2 |
| 20260905053211 | 85 | 280 | 22.6 | 37.4 | 0.00 | 0.00 | 0.00 | 26 | 1005.7 |
| 20260905052211 | 85 | 270 | 29.5 | 41.7 | 0.00 | 0.00 | 0.00 | 26 | 1005.6 |
| 20260905051711 | 85 | 271 | 28.7 | 41.7 | 0.00 | 0.00 | 0.00 | 26 | 1005.4 |
| 20260905051211 | 85 | 278 | 25.2 | 40.0 | 0.00 | 0.00 | 0.00 | 25 | 1005.6 |
| 20260905050711 | 85 | 271 | 25.2 | 41.7 | 0.00 | 0.00 | 0.00 | 25 | 1005.5 |
| 20260905050211 | 86 | 263 | 30.4 | 40.8 | 0.00 | 0.00 | 0.00 | 25 | 1005.3 |
| 20260905045711 | 86 | 275 | 22.6 | 40.0 | 0.00 | 0.00 | 0.00 | 24 | 1005.4 |
| 20260905045211 | 86 | 274 | 26.1 | 35.6 | 0.00 | 0.00 | 0.00 | 24 | 1005.4 |
| 20260905044711 | 86 | 269 | 20.0 | 33.9 | 0.00 | 0.00 | 0.00 | 24 | 1005.3 |
| 20260905044212 | 87 | 261 | 18.2 | 27.8 | 0.00 | 0.00 | 0.00 | 24 | 1005.2 |
| 20260905043711 | 87 | 270 | 20.0 | 39.1 | 0.00 | 0.00 | 0.00 | 22 | 1005.2 |
| 20260905042711 | 86 | 275 | 12.2 | 18.2 | 0.00 | 0.00 | 0.00 | 27 | 1005.5 |
| 20260905042211 | 86 | 301 | 14.8 | 19.1 | 0.00 | 0.00 | 0.00 | 26 | 1005.2 |
| 20260905041711 | 86 | 318 | 13.9 | 22.6 | 0.00 | 0.00 | 0.00 | 27 | 1005.1 |
| 20260905041211 | 86 | 328 | 15.6 | 22.6 | 0.00 | 0.00 | 0.00 | 27 | 1005.0 |
| 20260905040211 | 85 | 335 | 14.8 | 20.9 | 0.00 | 0.00 | 0.00 | 27 | 1005.3 |
| 20260905035711 | 85 | 329 | 13.9 | 21.7 | 0.00 | 0.00 | 0.00 | 28 | 1005.2 |
| 20260905035210 | 84 | 340 | 13.0 | 20.9 | 0.00 | 0.00 | 0.00 | 27 | 1005.5 |
| 20260905034711 | 84 | 338 | 17.4 | 26.1 | 0.00 | 0.00 | 0.00 | 27 | 1005.4 |
| 20260905034211 | 84 | 346 | 13.9 | 25.2 | 0.00 | 0.00 | 0.00 | 27 | 1005.6 |
| 20260905033711 | 84 | 334 | 11.3 | 22.6 | 0.00 | 0.00 | 0.00 | 28 | 1005.7 |
| 20260905033210 | 83 | 343 | 12.2 | 21.7 | 0.00 | 0.00 | 0.00 | 28 | 1005.8 |
| 20260905032211 | 83 | 354 | 16.5 | 25.2 | 0.00 | 0.00 | 0.00 | 28 | 1006.2 |
| 20260905031710 | 83 | 345 | 20.0 | 34.8 | 0.00 | 0.00 | 0.00 | 28 | 1006.4 |
| 20260905031211 | 82 | 347 | 16.5 | 34.8 | 0.00 | 0.00 | 0.00 | 29 | 1006.5 |
| 20260905030211 | 82 | 337 | 20.9 | 27.8 | 0.00 | 0.00 | 0.00 | 28 | 1006.9 |
| 20260905024711 | 81 | 339 | 10.4 | 17.4 | 0.00 | 0.00 | 0.00 | 32 | 1007.2 |
| 20260905024211 | 81 | 0 | 13.9 | 22.6 | 0.00 | 0.00 | 0.00 | 31 | 1007.5 |
| 20260905023710 | 81 | 341 | 14.8 | 26.9 | 0.00 | 0.00 | 0.00 | 30 | 1007.7 |
| 20260905023211 | 81 | 348 | 10.4 | 24.3 | 0.00 | 0.00 | 0.00 | 31 | 1008.0 |
| 20260905022711 | 81 | 335 | 10.4 | 14.8 | 0.00 | 0.00 | 0.00 | 32 | 1008.2 |
| 20260905022211 | 81 | 345 | 13.9 | 20.0 | 0.00 | 0.00 | 0.00 | 31 | 1008.3 |
| 20260905021711 | 81 | 341 | 14.8 | 21.7 | 0.00 | 0.00 | 0.00 | 30 | 1008.7 |
| 20260905021211 | 81 | 345 | 15.6 | 26.9 | 0.00 | 0.00 | 0.00 | 30 | 1008.8 |
| 20260905020711 | 81 | 351 | 13.9 | 19.1 | 0.00 | 0.00 | 0.00 | 32 | 1009.0 |
| 20260905020210 | 81 | 345 | 14.8 | 26.1 | 0.00 | 0.00 | 0.00 | 30 | 1009.1 |
| 20260905015711 | 81 | 344 | 12.2 | 19.1 | 0.00 | 0.00 | 0.00 | 30 | 1009.4 |
| 20260905015211 | 80 | 1 | 11.3 | 17.4 | 0.00 | 0.00 | 0.00 | 30 | 1009.5 |
| 20260905014711 | 80 | 356 | 13.9 | 18.2 | 0.00 | 0.00 | 0.00 | 30 | 1009.7 |
| 20260905014211 | 80 | 346 | 12.2 | 17.4 | 0.00 | 0.00 | 0.00 | 31 | 1009.8 |
| 20260905013711 | 80 | 353 | 10.4 | 14.8 | 0.00 | 0.00 | 0.00 | 31 | 1010.0 |
| 20260905013211 | 80 | 353 | 11.3 | 17.4 | 0.00 | 0.00 | 0.00 | 31 | 1010.1 |
| 20260905012711 | 80 | 347 | 7.8 | 13.9 | 0.00 | 0.00 | 0.00 | 31 | 1010.4 |
| 20260905012210 | 79 | 349 | 7.8 | 14.8 | 0.00 | 0.00 | 0.00 | 32 | 1010.6 |
| 20260905011710 | 79 | 342 | 8.7 | 14.8 | 0.00 | 0.00 | 0.00 | 32 | 1010.5 |
| 20260905011210 | 78 | 337 | 7.0 | 14.8 | 0.00 | 0.00 | 0.00 | 33 | 1010.9 |
| 20260905010711 | 78 | 330 | 8.7 | 12.2 | 0.00 | 0.00 | 0.00 | 33 | 1011.0 |
| 20260905010211 | 78 | 345 | 7.8 | 11.3 | 0.00 | 0.00 | 0.00 | 33 | 1011.4 |
| 20260905005711 | 77 | 347 | 5.2 | 10.4 | 0.00 | 0.00 | 0.00 | 33 | 1011.4 |
| 20260905005210 | 77 | 329 | 5.2 | 12.2 | 0.00 | 0.00 | 0.00 | 33 | 1011.5 |
| 20260905004711 | 76 | 343 | 6.1 | 13.0 | 0.00 | 0.00 | 0.00 | 33 | 1011.7 |
| 20260905004211 | 76 | 328 | 11.3 | 13.9 | 0.00 | 0.00 | 0.00 | 33 | 1012.0 |
| 20260905003710 | 76 | 340 | 10.4 | 15.6 | 0.00 | 0.00 | 0.00 | 34 | 1012.0 |
| 20260905002711 | 75 | 335 | 10.4 | 13.0 | 0.00 | 0.00 | 0.00 | 35 | 1012.4 |
| 20260905002211 | 75 | 341 | 10.4 | 13.9 | 0.00 | 0.00 | 0.00 | 34 | 1012.6 |
| 20260905001210 | 74 | 347 | 11.3 | 14.8 | 0.00 | 0.00 | 0.00 | 35 | 1012.8 |
| 20260905000211 | 73 | 349 | 10.4 | 14.8 | 0.00 | 0.00 | 0.00 | 37 | 1013.4 |
| 20260904235711 | 72 | 334 | 7.0 | 10.4 | 0.00 | 0.00 | 0.00 | 41 | 1013.4 |
| 20260904235210 | 72 | 354 | 3.5 | 8.7 | 0.00 | 0.00 | 0.00 | 42 | 1013.3 |
| 20260904234710 | 71 | 348 | 7.0 | 10.4 | 0.00 | 0.00 | 0.00 | 41 | 1013.3 |
| 20260904234211 | 71 | 345 | 7.0 | 10.4 | 0.00 | 0.00 | 0.00 | 42 | 1013.7 |
| 20260904233711 | 71 | 337 | 6.1 | 8.7 | 0.00 | 0.00 | 0.00 | 42 | 1014.0 |
| 20260904232710 | 71 | 323 | 7.8 | 10.4 | 0.00 | 0.00 | 0.00 | 43 | 1014.1 |
| 20260904232210 | 70 | 322 | 4.3 | 10.4 | 0.00 | 0.00 | 0.00 | 44 | 1014.0 |
| 20260904231711 | 70 | 337 | 6.1 | 10.4 | 0.00 | 0.00 | 0.00 | 44 | 1014.2 |
| 20260904231211 | 69 | 320 | 7.8 | 10.4 | 0.00 | 0.00 | 0.00 | 45 | 1014.2 |
| 20260904230710 | 68 | 325 | 6.1 | 10.4 | 0.00 | 0.00 | 0.00 | 47 | 1014.4 |
| 20260904230210 | 68 | 335 | 5.2 | 10.4 | 0.00 | 0.00 | 0.00 | 48 | 1014.5 |
| 20260904225211 | 66 | 321 | 6.1 | 10.4 | 0.00 | 0.00 | 0.00 | 51 | 1014.7 |
| 20260904224210 | 65 | 325 | 8.7 | 12.2 | 0.00 | 0.00 | 0.00 | 52 | 1015.0 |
| 20260904223710 | 65 | 316 | 8.7 | 11.3 | 0.00 | 0.00 | 0.00 | 53 | 1015.1 |
| 20260904223210 | 64 | 311 | 9.6 | 11.3 | 0.00 | 0.00 | 0.00 | 53 | 1015.2 |
| 20260904222711 | 64 | 326 | 8.7 | 11.3 | 0.00 | 0.00 | 0.00 | 54 | 1015.2 |
| 20260904221711 | 64 | 328 | 7.8 | 11.3 | 0.00 | 0.00 | 0.00 | 55 | 1015.2 |
| 20260904221210 | 63 | 313 | 7.8 | 10.4 | 0.00 | 0.00 | 0.00 | 55 | 1015.0 |
| 20260904220710 | 63 | 323 | 8.7 | 12.2 | 0.00 | 0.00 | 0.00 | 56 | 1015.1 |
| 20260904220210 | 63 | 320 | 8.7 | 12.2 | 0.00 | 0.00 | 0.00 | 57 | 1015.1 |
| 20260904215710 | 62 | 329 | 10.4 | 13.0 | 0.00 | 0.00 | 0.00 | 57 | 1015.0 |
| 20260904215211 | 62 | 315 | 8.7 | 12.2 | 0.00 | 0.00 | 0.00 | 57 | 1015.3 |
| 20260904214710 | 62 | 315 | 9.6 | 12.2 | 0.00 | 0.00 | 0.00 | 57 | 1015.4 |
| 20260904213210 | 62 | 324 | 11.3 | 13.9 | 0.00 | 0.00 | 0.00 | 58 | 1015.4 |
| 20260904212711 | 62 | 322 | 12.2 | 13.9 | 0.00 | 0.00 | 0.00 | 58 | 1015.4 |
| 20260904212210 | 61 | 321 | 11.3 | 13.9 | 0.00 | 0.00 | 0.00 | 59 | 1015.3 |
| 20260904211710 | 61 | 320 | 11.3 | 13.0 | 0.00 | 0.00 | 0.00 | 59 | 1015.4 |
| 20260904211210 | 61 | 320 | 8.7 | 12.2 | 0.00 | 0.00 | 0.00 | 60 | 1015.2 |
| 20260904210711 | 60 | 321 | 10.4 | 12.2 | 0.00 | 0.00 | 0.00 | 60 | 1015.4 |
| 20260904210210 | 60 | 317 | 12.2 | 13.9 | 0.00 | 0.00 | 0.00 | 60 | 1015.4 |
| 20260904205710 | 60 | 310 | 11.3 | 13.9 | 0.00 | 0.00 | 0.00 | 61 | 1015.6 |
| 20260904205211 | 60 | 312 | 12.2 | 14.8 | 0.00 | 0.00 | 0.00 | 61 | 1015.4 |
| 20260904204710 | 60 | 315 | 13.9 | 15.6 | 0.00 | 0.00 | 0.00 | 61 | 1015.5 |
| 20260904204210 | 60 | 314 | 14.8 | 17.4 | 0.00 | 0.00 | 0.00 | 60 | 1015.4 |
| 20260904203710 | 60 | 309 | 14.8 | 17.4 | 0.00 | 0.00 | 0.00 | 60 | 1015.4 |
| 20260904203210 | 60 | 310 | 13.9 | 17.4 | 0.00 | 0.00 | 0.00 | 60 | 1015.7 |
| 20260904202210 | 60 | 307 | 14.8 | 17.4 | 0.00 | 0.00 | 0.00 | 59 | 1015.5 |
| 20260904201710 | 61 | 317 | 13.9 | 17.4 | 0.00 | 0.00 | 0.00 | 60 | 1015.5 |
| 20260904201210 | 61 | 307 | 13.0 | 14.8 | 0.00 | 0.00 | 0.00 | 59 | 1015.4 |
| 20260904200210 | 60 | 303 | 12.2 | 13.9 | 0.00 | 0.00 | 0.00 | 60 | 1015.5 |
| 20260904195710 | 60 | 304 | 12.2 | 14.8 | 0.00 | 0.00 | 0.00 | 61 | 1015.4 |
| 20260904195210 | 60 | 299 | 11.3 | 13.0 | 0.00 | 0.00 | 0.00 | 62 | 1015.6 |
| 20260904194210 | 60 | 301 | 8.7 | 11.3 | 0.00 | 0.00 | 0.00 | 62 | 1015.4 |
| 20260904193710 | 60 | 304 | 8.7 | 10.4 | 0.00 | 0.00 | 0.00 | 62 | 1015.4 |
| 20260904193209 | 60 | 294 | 7.8 | 10.4 | 0.00 | 0.00 | 0.00 | 62 | 1015.6 |
| 20260904191710 | 60 | 294 | 7.8 | 10.4 | 0.00 | 0.00 | 0.00 | 63 | 1015.6 |
| 20260904190710 | 60 | 305 | 6.1 | 8.7 | 0.00 | 0.00 | 0.00 | 64 | 1015.5 |
| 20260904190210 | 60 | 300 | 6.1 | 7.8 | 0.00 | 0.00 | 0.00 | 64 | 1015.6 |
| 20260904185710 | 60 | 306 | 6.1 | 7.8 | 0.00 | 0.00 | 0.00 | 64 | 1015.7 |
| 20260904185210 | 60 | 303 | 6.1 | 7.0 | 0.00 | 0.00 | 0.00 | 64 | 1015.7 |
| 20260904184710 | 60 | 309 | 5.2 | 7.0 | 0.00 | 0.00 | 0.00 | 64 | 1015.8 |
| 20260904184210 | 60 | 324 | 6.1 | 7.0 | 0.00 | 0.00 | 0.00 | 64 | 1015.7 |
| 20260904183210 | 60 | 326 | 7.0 | 7.8 | 0.00 | 0.00 | 0.00 | 63 | 1015.9 |
| 20260904182710 | 61 | 315 | 6.1 | 7.8 | 0.00 | 0.00 | 0.00 | 63 | 1015.9 |
| 20260904182210 | 61 | 333 | 5.2 | 8.7 | 0.00 | 0.00 | 0.00 | 62 | 1015.8 |
| 20260904181210 | 61 | 317 | 7.0 | 8.7 | 0.00 | 0.00 | 0.00 | 61 | 1015.7 |
| 20260904180710 | 61 | 314 | 7.0 | 7.8 | 0.00 | 0.00 | 0.00 | 61 | 1015.9 |
| 20260904180210 | 61 | 314 | 6.1 | 7.8 | 0.00 | 0.00 | 0.00 | 62 | 1015.9 |
| 20260904175710 | 61 | 302 | 5.2 | 6.1 | 0.00 | 0.00 | 0.00 | 62 | 1015.6 |
| 20260904175210 | 61 | 314 | 5.2 | 6.1 | 0.00 | 0.00 | 0.00 | 63 | 1015.6 |
| 20260904174710 | 61 | 310 | 4.3 | 6.1 | 0.00 | 0.00 | 0.00 | 64 | 1015.6 |
| 20260904174210 | 60 | 320 | 4.3 | 6.1 | 0.00 | 0.00 | 0.00 | 65 | 1015.7 |
| 20260904173710 | 60 | 336 | 2.6 | 6.1 | 0.00 | 0.00 | 0.00 | 67 | 1015.7 |
| 20260904173210 | 60 | 54 | 2.6 | 4.3 | 0.00 | 0.00 | 0.00 | 68 | 1015.6 |
| 20260904172210 | 60 | 308 | 1.7 | 5.2 | 0.00 | 0.00 | 0.00 | 64 | 1015.7 |
| 20260904171210 | 60 | 301 | 4.3 | 6.1 | 0.00 | 0.00 | 0.00 | 65 | 1015.7 |
| 20260904170710 | 60 | 313 | 5.2 | 7.0 | 0.00 | 0.00 | 0.00 | 65 | 1015.8 |
| 20260904170210 | 60 | 312 | 6.1 | 10.4 | 0.00 | 0.00 | 0.00 | 65 | 1015.9 |
| 20260904165710 | 60 | 314 | 5.2 | 10.4 | 0.00 | 0.00 | 0.00 | 66 | 1016.1 |
| 20260904165210 | 60 | 332 | 5.2 | 8.7 | 0.00 | 0.00 | 0.00 | 66 | 1016.1 |
| 20260904164210 | 60 | 329 | 6.1 | 8.7 | 0.00 | 0.00 | 0.00 | 65 | 1016.2 |
| 20260904163710 | 60 | 328 | 5.2 | 7.0 | 0.00 | 0.00 | 0.00 | 65 | 1016.3 |
| 20260904163210 | 60 | 321 | 5.2 | 7.8 | 0.00 | 0.00 | 0.00 | 66 | 1016.3 |
| 20260904162710 | 60 | 319 | 2.6 | 5.2 | 0.00 | 0.00 | 0.00 | 67 | 1016.4 |
| 20260904161709 | 60 | 307 | 0.0 | 2.6 | 0.00 | 0.00 | 0.00 | 67 | 1016.5 |
| 20260904161209 | 60 | 283 | 3.5 | 7.0 | 0.00 | 0.00 | 0.00 | 67 | 1016.8 |
| 20260904160709 | 60 | 296 | 5.2 | 10.4 | 0.00 | 0.00 | 0.00 | 67 | 1016.8 |
| 20260904160210 | 60 | 304 | 7.8 | 10.4 | 0.00 | 0.00 | 0.00 | 67 | 1017.0 |
| 20260904155710 | 60 | 321 | 8.7 | 11.3 | 0.00 | 0.00 | 0.00 | 67 | 1016.8 |
| 20260904155209 | 61 | 310 | 8.7 | 11.3 | 0.00 | 0.00 | 0.00 | 67 | 1017.1 |
| 20260904154709 | 61 | 304 | 8.7 | 10.4 | 0.00 | 0.00 | 0.00 | 68 | 1017.2 |
| 20260904154210 | 61 | 302 | 9.6 | 10.4 | 0.00 | 0.00 | 0.00 | 68 | 1017.2 |
| 20260904153710 | 60 | 306 | 8.7 | 10.4 | 0.00 | 0.00 | 0.00 | 69 | 1017.1 |
| 20260904153210 | 60 | 306 | 8.7 | 10.4 | 0.00 | 0.00 | 0.00 | 69 | 1017.3 |
| 20260904152710 | 60 | 309 | 8.7 | 11.3 | 0.00 | 0.00 | 0.00 | 70 | 1017.4 |
| 20260904152210 | 60 | 309 | 8.7 | 11.3 | 0.00 | 0.00 | 0.00 | 71 | 1017.5 |
| 20260904151710 | 60 | 294 | 8.7 | 11.3 | 0.00 | 0.00 | 0.00 | 72 | 1017.6 |
| 20260904150710 | 60 | 312 | 8.7 | 10.4 | 0.00 | 0.00 | 0.00 | 72 | 1017.5 |
| 20260904145210 | 60 | 310 | 10.4 | 12.2 | 0.00 | 0.00 | 0.00 | 72 | 1017.9 |
| 20260904144709 | 61 | 304 | 8.7 | 11.3 | 0.00 | 0.00 | 0.00 | 72 | 1017.9 |
| 20260904144209 | 61 | 306 | 9.6 | 11.3 | 0.00 | 0.00 | 0.00 | 72 | 1017.8 |
| 20260904143210 | 61 | 304 | 7.0 | 8.7 | 0.00 | 0.00 | 0.00 | 72 | 1017.7 |
| 20260904142709 | 61 | 305 | 7.0 | 10.4 | 0.00 | 0.00 | 0.00 | 72 | 1018.0 |
| 20260904142209 | 61 | 312 | 7.8 | 8.7 | 0.00 | 0.00 | 0.00 | 72 | 1018.0 |
| 20260904141709 | 61 | 310 | 7.8 | 8.7 | 0.00 | 0.00 | 0.00 | 72 | 1017.9 |
| 20260904141209 | 61 | 316 | 7.8 | 8.7 | 0.00 | 0.00 | 0.00 | 72 | 1018.2 |
| 20260904140709 | 61 | 325 | 7.0 | 7.8 | 0.00 | 0.00 | 0.00 | 71 | 1017.9 |